CZ-6A DEB

Satellite information

Favourite Embed

Satellite Type and Status

DEBRISIN ORBIT

Key statistics

Satellite CZ-6A DEB at a glance.

Uptime

1075

Days in orbit

Revolutions

≈ 14.4

Per day

Orbit

SSO

Sun Synchronous Orbit

Inclination

98.6

Latest

Satellite identification and parameters

Extended collection of information and parameters for CZ-6A DEB.

Object identification

Identified? True

Debris? True

Object name: CZ-6A DEB

International designator: 2022-151HG

Object number (NORAD): 54480

Object ID (CCSDS): 54480

Country: PEOPLES REPUBLIC OF CHINA (PRC)

Current information (Y/N): Y

RCS size: SMALL

Orbital parameters

Period: 100.163 minutes

Inclination: 98.6417 deg

SMA: 7144.41 km

Apoapsis: 858.9 km

Periapsis: 673.649 km

RAAN: 323.5856 deg

Eccentricy: 0.01296475

Argument of periapsis: 5.599 deg

Mean anomaly: 354.661 deg

Mean motion: 14.37650242 rev/day

Mean motion (dot): 0.00001023 rev/day2

B* drag term: 0.00032395804 1/REarth

Two-line elements (TLE)

Creation date: Oct. 21, 2025, 3:26 a.m.

Reference frame: TEME

Reference center: EARTH

Epoch: Oct. 20, 2025, 10:52 p.m. UTC

TLE line 0: 0 CZ-6A DEB

TLE line 1: 1 54480U 22151HG 25293.95325206 .00001023 00000-0 32396-3 0 9997

TLE line 2: 2 54480 98.6417 323.5856 0129648 5.5990 354.6610 14.37650242153938

Live tracking on map

Real-time ground track for satellite CZ-6A DEB.

In-orbit conjunctions

A list of the most updated potential collisions computed for object CZ-6A DEB.

Target Orbit TCA Probability of collision Miss distance Type
ELECTRON KICK STAGE R/B SSO 2024-09-02 18:21:54 0.000582233 132.0 (m) ROCKET BODY
COSMOS 374 DEB LEO 2024-07-02 05:10:43 0.0001041633 425.0 (m) DEBRIS

Associated space launch

Chinese satellite reported for atmospheric/ocean/environmental/spatial parameter research purposes, details TBD.

CZ-6A DEB was lifted into orbit during the mission ‘Long March 6A | Yunhai 3’, on board a Long March 6A space rocket.

The launch took place on Nov. 11, 2022, 10:52 p.m. from Launch Complex 9A.

For more information about the launch, click the button.

Launch to space Long March 6A | Yunhai 3
Long March 6A | Yunhai 3

Agency: N/A

Status: Launch Successful

Launch date: Nov. 11, 2022, 10:52 p.m. UTC

Rocket: Long March 6A

Launch pad: Launch Complex 9A

Location: Taiyuan Satellite Launch Center, People's Republic of China

...

Latest news about this satellite

There are no fresh news available about this satellite. Check back as we update our databases every day.


Newsletter sign-up

Weekly statistics, charts and insights to help you stay on top of the space industry.